| time (UTC) | temp C | wind direction | speed KPH | gust KPH | rain 1hr cm | rain 24hr cm | rain mn cm | humidity % | barometer mb |
| 20260831072220 | 20 | 93 | 3.2 | 12.9 | 0.00 | 0.00 | 0.00 | 53 | 1028.4 |
| 20260831070714 | 21 | 89 | 4.8 | 11.3 | 0.00 | 0.00 | 0.00 | 49 | 1028.4 |
| 20260831065215 | 21 | 81 | 4.8 | 11.3 | 0.00 | 0.00 | 0.00 | 46 | 1028.4 |
| 20260831063713 | 22 | 84 | 4.8 | 14.5 | 0.00 | 0.00 | 0.00 | 44 | 1028.3 |
| 20260831062219 | 22 | 80 | 9.7 | 17.7 | 0.00 | 0.00 | 0.00 | 45 | 1028.2 |
| 20260831060710 | 23 | 101 | 8.0 | 17.7 | 0.00 | 0.00 | 0.00 | 46 | 1028.2 |
| 20260831055220 | 23 | 95 | 4.8 | 20.9 | 0.00 | 0.00 | 0.00 | 50 | 1028.0 |
| 20260831053702 | 23 | 84 | 11.3 | 20.9 | 0.00 | 0.00 | 0.00 | 47 | 1028.1 |
| 20260831052200 | 25 | 74 | 6.4 | 20.9 | 0.00 | 0.00 | 0.00 | 45 | 1028.1 |
| 20260831050657 | 26 | 83 | 3.2 | 16.1 | 0.00 | 0.00 | 0.00 | 42 | 1028.1 |
| 20260831045206 | 27 | 350 | 1.6 | 12.9 | 0.00 | 0.00 | 0.00 | 41 | 1028.1 |
| 20260831043658 | 27 | 24 | 1.6 | 6.4 | 0.00 | 0.00 | 0.00 | 39 | 1028.2 |
| 20260831042156 | 27 | 48 | 1.6 | 8.0 | 0.00 | 0.00 | 0.00 | 43 | 1028.1 |
| 20260831040702 | 27 | 19 | 1.6 | 8.0 | 0.00 | 0.00 | 0.00 | 39 | 1028.1 |
| 20260831035151 | 27 | 37 | 1.6 | 14.5 | 0.00 | 0.00 | 0.00 | 41 | 1028.5 |
| 20260831033652 | 27 | 5 | 1.6 | 8.0 | 0.00 | 0.00 | 0.00 | 44 | 1028.5 |
| 20260831032149 | 26 | 38 | 1.6 | 8.0 | 0.00 | 0.00 | 0.00 | 44 | 1028.7 |
| 20260831030656 | 26 | 17 | 1.6 | 11.3 | 0.00 | 0.00 | 0.00 | 44 | 1029.0 |
| 20260831025148 | 25 | 71 | 1.6 | 6.4 | 0.00 | 0.00 | 0.00 | 44 | 1029.1 |
| 20260831023647 | 25 | 22 | 1.6 | 11.3 | 0.00 | 0.00 | 0.00 | 45 | 1029.3 |
| 20260831022142 | 25 | 48 | 1.6 | 8.0 | 0.00 | 0.00 | 0.00 | 45 | 1029.6 |
| 20260831020649 | 24 | 36 | 1.6 | 6.4 | 0.00 | 0.00 | 0.00 | 47 | 1029.7 |
| 20260831015137 | 23 | 293 | 1.6 | 4.8 | 0.00 | 0.00 | 0.00 | 49 | 1030.1 |
| 20260831013636 | 22 | 292 | 1.6 | 4.8 | 0.00 | 0.00 | 0.00 | 47 | 1030.4 |
| 20260831012137 | 22 | 292 | 1.6 | 6.4 | 0.00 | 0.00 | 0.00 | 49 | 1030.6 |
| 20260831010618 | 21 | 329 | 1.6 | 6.4 | 0.00 | 0.00 | 0.00 | 54 | 1030.9 |
| 20260831005114 | 20 | 286 | 0.0 | 6.4 | 0.00 | 0.00 | 0.00 | 56 | 1031.0 |
| 20260831003613 | 20 | 288 | 1.6 | 4.8 | 0.00 | 0.00 | 0.00 | 58 | 1031.0 |
| 20260831002806 | 20 | 288 | 1.6 | 4.8 | 0.00 | 0.00 | 0.00 | 57 | 1031.1 |
| 20260831000612 | 20 | 106 | 1.6 | 6.4 | 0.00 | 0.00 | 0.00 | 57 | 1031.1 |
| 20260830235042 | 18 | 99 | 0.0 | 8.0 | 0.00 | 0.00 | 0.00 | 60 | 1031.1 |
| 20260830233530 | 17 | 111 | 3.2 | 6.4 | 0.00 | 0.00 | 0.00 | 61 | 1031.2 |
| 20260830232020 | 15 | 153 | 1.6 | 4.8 | 0.00 | 0.00 | 0.00 | 65 | 1031.1 |
| 20260830230520 | 14 | 0 | 1.6 | 4.8 | 0.00 | 0.00 | 0.00 | 68 | 1031.2 |
| 20260830225012 | 12 | 0 | 1.6 | 4.8 | 0.00 | 0.00 | 0.00 | 74 | 1031.2 |
| 20260830223520 | 10 | 149 | 1.6 | 6.4 | 0.00 | 0.00 | 0.00 | 79 | 1031.0 |
| 20260830222012 | 9 | 0 | 3.2 | 8.0 | 0.00 | 0.00 | 0.00 | 81 | 1031.0 |
| 20260830220500 | 8 | 0 | 3.2 | 6.4 | 0.00 | 0.00 | 0.00 | 82 | 1030.9 |
| 20260830214955 | 7 | 148 | 4.8 | 9.7 | 0.00 | 0.00 | 0.00 | 84 | 1030.9 |
| 20260830213448 | 6 | 171 | 4.8 | 11.3 | 0.00 | 0.00 | 0.00 | 84 | 1030.8 |
| 20260830211938 | 6 | 145 | 6.4 | 11.3 | 0.00 | 0.00 | 0.00 | 85 | 1030.7 |
| 20260830210438 | 6 | 119 | 4.8 | 12.9 | 0.00 | 0.00 | 0.00 | 84 | 1030.5 |
| 20260830204936 | 6 | 129 | 3.2 | 12.9 | 0.00 | 0.00 | 0.00 | 84 | 1030.4 |
| 20260830203431 | 6 | 111 | 6.4 | 14.5 | 0.00 | 0.00 | 0.00 | 84 | 1030.2 |
| 20260830201925 | 6 | 167 | 4.8 | 12.9 | 0.00 | 0.00 | 0.00 | 84 | 1030.0 |
| 20260830200417 | 6 | 142 | 3.2 | 9.7 | 0.00 | 0.00 | 0.00 | 84 | 1029.8 |
| 20260830195604 | 6 | 135 | 3.2 | 8.0 | 0.00 | 0.00 | 0.00 | 84 | 1029.8 |
| 20260830193412 | 6 | 174 | 4.8 | 14.5 | 0.00 | 0.00 | 0.00 | 84 | 1029.6 |
| 20260830191920 | 6 | 162 | 3.2 | 9.7 | 0.00 | 0.00 | 0.00 | 85 | 1029.6 |
| 20260830190413 | 6 | 153 | 4.8 | 9.7 | 0.00 | 0.00 | 0.00 | 85 | 1029.5 |
| 20260830184913 | 6 | 153 | 3.2 | 11.3 | 0.00 | 0.00 | 0.00 | 84 | 1029.4 |
| 20260830183403 | 6 | 234 | 4.8 | 11.3 | 0.00 | 0.00 | 0.00 | 84 | 1029.5 |
| 20260830181901 | 6 | 161 | 3.2 | 8.0 | 0.00 | 0.00 | 0.00 | 84 | 1029.6 |
| 20260830180358 | 6 | 171 | 4.8 | 11.3 | 0.00 | 0.00 | 0.00 | 83 | 1029.8 |
| 20260830174837 | 6 | 158 | 1.6 | 8.0 | 0.00 | 0.00 | 0.00 | 83 | 1029.7 |
| 20260830173329 | 6 | 171 | 0.0 | 6.4 | 0.00 | 0.00 | 0.00 | 83 | 1029.7 |
| 20260830171819 | 6 | 171 | 1.6 | 6.4 | 0.00 | 0.00 | 0.00 | 83 | 1029.9 |
| 20260830170328 | 7 | 173 | 3.2 | 9.7 | 0.00 | 0.00 | 0.00 | 83 | 1030.1 |
| 20260830164819 | 7 | 169 | 4.8 | 9.7 | 0.00 | 0.00 | 0.00 | 82 | 1030.2 |
| 20260830163324 | 7 | 132 | 0.0 | 4.8 | 0.00 | 0.00 | 0.00 | 81 | 1030.2 |
| 20260830161821 | 7 | 132 | 3.2 | 6.4 | 0.00 | 0.00 | 0.00 | 82 | 1030.3 |
| 20260830160258 | 7 | 133 | 3.2 | 8.0 | 0.00 | 0.00 | 0.00 | 82 | 1030.4 |
| 20260830154758 | 7 | 120 | 4.8 | 9.7 | 0.00 | 0.00 | 0.00 | 82 | 1030.5 |
| 20260830153249 | 7 | 164 | 4.8 | 11.3 | 0.00 | 0.00 | 0.00 | 81 | 1030.5 |
| 20260830151746 | 7 | 153 | 4.8 | 11.3 | 0.00 | 0.00 | 0.00 | 81 | 1030.7 |
| 20260830150249 | 8 | 137 | 3.2 | 8.0 | 0.00 | 0.00 | 0.00 | 81 | 1030.7 |
| 20260830144746 | 8 | 142 | 1.6 | 8.0 | 0.00 | 0.00 | 0.00 | 81 | 1030.7 |
| 20260830143245 | 8 | 142 | 3.2 | 6.4 | 0.00 | 0.00 | 0.00 | 80 | 1030.7 |
| 20260830141745 | 8 | 159 | 3.2 | 8.0 | 0.00 | 0.00 | 0.00 | 80 | 1030.7 |
| 20260830140238 | 8 | 160 | 3.2 | 8.0 | 0.00 | 0.00 | 0.00 | 79 | 1030.6 |
| 20260830134736 | 8 | 126 | 3.2 | 8.0 | 0.00 | 0.00 | 0.00 | 78 | 1030.7 |
| 20260830133238 | 8 | 117 | 4.8 | 11.3 | 0.00 | 0.00 | 0.00 | 78 | 1030.8 |
| 20260830131724 | 8 | 164 | 4.8 | 12.9 | 0.00 | 0.00 | 0.00 | 77 | 1030.7 |
| 20260830130223 | 9 | 156 | 4.8 | 12.9 | 0.00 | 0.00 | 0.00 | 75 | 1030.8 |
| 20260830124724 | 9 | 166 | 4.8 | 14.5 | 0.00 | 0.00 | 0.00 | 76 | 1030.8 |
| 20260830123225 | 9 | 148 | 3.2 | 8.0 | 0.00 | 0.00 | 0.00 | 75 | 1030.8 |
| 20260830121712 | 10 | 146 | 3.2 | 9.7 | 0.00 | 0.00 | 0.00 | 74 | 1030.7 |
| 20260830120214 | 10 | 147 | 3.2 | 9.7 | 0.00 | 0.00 | 0.00 | 74 | 1030.7 |
| 20260830114715 | 10 | 155 | 4.8 | 9.7 | 0.00 | 0.00 | 0.00 | 73 | 1030.6 |
| 20260830113217 | 10 | 122 | 4.8 | 8.0 | 0.00 | 0.00 | 0.00 | 73 | 1030.6 |
| 20260830111718 | 10 | 162 | 4.8 | 9.7 | 0.00 | 0.00 | 0.00 | 72 | 1030.5 |
| 20260830110230 | 11 | 148 | 1.6 | 4.8 | 0.00 | 0.00 | 0.00 | 71 | 1030.3 |
| 20260830104713 | 11 | 142 | 3.2 | 9.7 | 0.00 | 0.00 | 0.00 | 70 | 1030.3 |
| 20260830103214 | 11 | 146 | 3.2 | 6.4 | 0.00 | 0.00 | 0.00 | 69 | 1030.2 |
| 20260830101712 | 12 | 146 | 1.6 | 6.4 | 0.00 | 0.00 | 0.00 | 67 | 1030.0 |
| 20260830100213 | 12 | 144 | 3.2 | 8.0 | 0.00 | 0.00 | 0.00 | 67 | 1030.1 |
| 20260830094720 | 13 | 159 | 3.2 | 6.4 | 0.00 | 0.00 | 0.00 | 66 | 1030.0 |
| 20260830093220 | 13 | 158 | 3.2 | 6.4 | 0.00 | 0.00 | 0.00 | 65 | 1029.9 |
| 20260830091710 | 13 | 76 | 1.6 | 4.8 | 0.00 | 0.00 | 0.00 | 64 | 1029.7 |
| 20260830090212 | 14 | 70 | 1.6 | 3.2 | 0.00 | 0.00 | 0.00 | 62 | 1029.7 |
| 20260830084712 | 15 | 70 | 0.0 | 3.2 | 0.00 | 0.00 | 0.00 | 61 | 1029.6 |
| 20260830083212 | 15 | 46 | 0.0 | 0.0 | 0.00 | 0.00 | 0.00 | 59 | 1029.3 |
| 20260830082425 | 16 | 46 | 0.0 | 0.0 | 0.00 | 0.00 | 0.00 | 57 | 1029.2 |
| 20260830080211 | 17 | 46 | 0.0 | 0.0 | 0.00 | 0.00 | 0.00 | 54 | 1029.0 |
| 20260830074701 | 18 | 46 | 0.0 | 4.8 | 0.00 | 0.00 | 0.00 | 50 | 1028.8 |
| 20260830073152 | 20 | 37 | 0.0 | 4.8 | 0.00 | 0.00 | 0.00 | 45 | 1028.3 |